ZSMPI FAOB-FYWH

Flight info

Callsign ZSMPI
Flight time N/A
Altitude 24000
Route XUGOL DCT KODES/N0310F250 UN186 ATUPI DCT VEDRY
Aircraft B350/L-SBGRW/S

Departure

Time 2026-04-22 16:31
Airport Overberg Airport (FAOB)

Arrival

Time N/A
Airport Hosea Kutako International Airport (FYWH)
Time Latitude Longitude Altitude Speed Heading
2026-04-22 15:15 -34.56330 20.25140 52 ft 0 kts 238°
2026-04-22 15:16 -34.56330 20.25141 52 ft 0 kts 238°
2026-04-22 15:23 -34.56330 20.25142 49 ft 0 kts 238°
2026-04-22 15:30 -34.56329 20.25142 49 ft 0 kts 238°
2026-04-22 15:31 -34.56329 20.25143 49 ft 0 kts 238°
2026-04-22 15:39 -34.56329 20.25144 46 ft 0 kts 238°
2026-04-22 15:49 -34.56329 20.25145 46 ft 0 kts 238°
2026-04-22 15:51 -34.56328 20.25145 46 ft 0 kts 238°
2026-04-22 15:59 -34.56328 20.25146 52 ft 0 kts 238°
2026-04-22 16:09 -34.56328 20.25147 46 ft 0 kts 238°
2026-04-22 16:19 -34.56327 20.25147 46 ft 0 kts 238°
2026-04-22 16:22 -34.56331 20.25138 57 ft 0 kts 238°
2026-04-22 16:24 -34.56331 20.25139 57 ft 0 kts 238°
2026-04-22 16:25 -34.56331 20.25138 57 ft 0 kts 239°
2026-04-22 16:25 -34.56287 20.25150 49 ft 7 kts 328°
2026-04-22 16:25 -34.56304 20.25167 48 ft 9 kts 92°
2026-04-22 16:26 -34.56303 20.25246 49 ft 3 kts 59°
2026-04-22 16:26 -34.56300 20.25271 49 ft 4 kts 93°
2026-04-22 16:26 -34.56305 20.25311 49 ft 6 kts 101°
2026-04-22 16:26 -34.56279 20.25345 49 ft 8 kts 342°
2026-04-22 16:27 -34.56219 20.25297 49 ft 12 kts 325°
2026-04-22 16:27 -34.56138 20.25232 49 ft 15 kts 327°
2026-04-22 16:27 -34.56045 20.25159 49 ft 16 kts 327°
2026-04-22 16:27 -34.55957 20.25089 50 ft 15 kts 327°
2026-04-22 16:28 -34.55874 20.25018 47 ft 14 kts 324°
2026-04-22 16:28 -34.55803 20.24953 50 ft 11 kts 325°
2026-04-22 16:28 -34.55734 20.24939 49 ft 10 kts 19°
2026-04-22 16:28 -34.55674 20.24970 50 ft 9 kts 19°
2026-04-22 16:29 -34.55616 20.24993 50 ft 9 kts 20°
2026-04-22 16:29 -34.55558 20.25019 49 ft 9 kts 21°
2026-04-22 16:29 -34.55511 20.25061 49 ft 8 kts 67°
2026-04-22 16:29 -34.55518 20.25111 46 ft 5 kts 127°
2026-04-22 16:30 -34.55535 20.25132 50 ft 5 kts 144°
2026-04-22 16:30 -34.55668 20.25243 49 ft 58 kts 146°
2026-04-22 16:30 -34.56186 20.25670 50 ft 115 kts 145°
2026-04-22 16:30 -34.56946 20.26305 100 ft 151 kts 143°
2026-04-22 16:31 -34.57869 20.27110 302 ft 171 kts 137°
2026-04-22 16:31 -34.58573 20.28297 742 ft 179 kts 111°
2026-04-22 16:31 -34.58692 20.29777 1361 ft 177 kts 83°
2026-04-22 16:31 -34.58204 20.31142 1725 ft 182 kts 53°
2026-04-22 16:32 -34.57211 20.32140 2045 ft 193 kts 25°
2026-04-22 16:32 -34.55951 20.32528 2718 ft 181 kts 358°
2026-04-22 16:32 -34.54760 20.32141 3212 ft 179 kts 323°
2026-04-22 16:32 -34.53910 20.31100 3746 ft 172 kts 303°
2026-04-22 16:33 -34.53177 20.29955 4280 ft 171 kts 304°
2026-04-22 16:33 -34.52448 20.28821 4817 ft 170 kts 304°
2026-04-22 16:33 -34.51721 20.27680 5323 ft 171 kts 304°
2026-04-22 16:33 -34.50993 20.26535 5825 ft 172 kts 304°
2026-04-22 16:34 -34.50235 20.25432 6321 ft 174 kts 311°
2026-04-22 16:34 -34.49296 20.24493 6820 ft 177 kts 323°
2026-04-22 16:34 -34.48185 20.23817 7280 ft 182 kts 338°